Location: Namasale
(1.5000°N, 32.6167°E)
Time: 13:48:52
(UTC+00:00)

GPS 2-12 Rocket1 - Pass Details

Date: 09 April 2020
Orbit: 586 x 652 km, 20.0° (Epoch: 04 June)

Event Time Altitude Azimuth Distance (km) Brightness Sun altitude
Rises 16:21:32 0° 255° (WSW) 2,952 8.0 -7.4°
Reaches altitude 10° 16:23:57 10° 259° (WSW) 2,041 7.1 -8.0°
Maximum altitude 16:28:42 61° 339° (NNW) 727 3.6 -9.1°
Drops below altitude 10° 16:33:24 10° 59° (ENE) 2,018 5.2 -10.3°
Enters shadow 16:33:58 - 61° (ENE) 2,227 5.4 -10.4°
